Home > Weather > Barrow > Past weeks

Flag for U.S.A. Weather for the Past 2 Weeks in Barrow, Alaska, U.S.A.

Now
-5 °F

Broken clouds.


Feels Like: -32 °F
Forecast: -10 / -3 °F
Wind: 29 mph from Northeast

Location: Post Rogers Memorial Airport

Current Time: Feb 13, 2016 at 12:33:15 PM

Latest Report: Feb 13, 2016 at 11:53 AM


Visibility: 0 mi

Pressure: 29.78 "Hg

Humidity: 87%

Dew point: -8 °F

Location of BarrowLocation

Historic Weather in Barrow — Graph

°F

Barrow Temperature Yesterday

Maximum temperature yesterday: 6 °F (at 5:53 AM)
Minimum temperature yesterday: 0 °F (at 11:53 PM)
Average temperature yesterday: 4 °F

High & Low Weather Summary for the Past Weeks

 TemperatureHumidityPressure
High14 °F (Jan 31, 1:53 PM)92% (Feb 12, 8:53 PM)30.47 "Hg (Feb 12, 8:53 PM)
Low-19 °F (Feb 6, 10:53 AM)77% (Feb 6, 6:53 AM)29.37 "Hg (Jan 29, 10:53 AM)
Average-5 °F84%30.06 "Hg
* Reported Jan 29 10:53 AM — Feb 13 10:53 AM, Barrow, Weather by CustomWeather, © 2016

Note: Actual official high and low records may vary slightly from our data, if they occured in-between our weather recording intervals... More about our weather records

Advertising

Barrow Weather History for the Previous 24 Hours

 ConditionsComfort  
Time TempWeatherWind HumidityBarometerVisibility
10:53 AM
Sat, Feb 13
-4 °FBroken clouds.35 mph91%29.78 "Hg1 mi
9:53 AM-4 °FLight snow. Mostly cloudy.38 mph91%29.79 "Hg1 mi
8:53 AM-3 °FLight snow. Ice fog.37 mph86%29.79 "Hg1 mi
7:53 AM-2 °FLight snow. Ice fog.36 mph86%29.79 "Hg1 mi
6:53 AM-2 °FLight snow. Mostly cloudy.33 mph86%29.80 "Hg1 mi
5:53 AM-2 °FLight snow. Low clouds.32 mph86%29.81 "Hg1 mi
5:00 AM-3 °FLight snow. Overcast.36 mph90%29.81 "Hg1 mi
4:00 AM-1 °FLight snow. Ice fog.36 mph86%29.83 "Hg1 mi
2:53 AM-2 °FLight snow. Mostly cloudy.37 mph86%29.84 "Hg1 mi
1:53 AM-1 °FLight snow. Ice fog.32 mph86%29.85 "Hg1 mi
12:53 AM0 °FLight snow. Ice fog.36 mph87%29.84 "Hg0 mi
12:03 AM0 °FSnow. Ice fog.32 mph91%29.84 "Hg0 mi
11:53 PM
Fri, Feb 12
0 °FLight snow. Ice fog.32 mph91%29.84 "Hg0 mi
10:53 PM1 °FLight snow. Ice fog.32 mph92%29.84 "Hg0 mi
9:53 PM2 °FHeavy snow. Ice fog.32 mph92%29.83 "Hg0 mi
8:53 PM2 °FHeavy snow. Ice fog.32 mph92%29.84 "Hg0 mi
7:53 PM3 °FLight snow. Ice fog.35 mph91%29.84 "Hg0 mi
6:53 PM4 °FHeavy snow. Ice fog.38 mph91%29.84 "Hg0 mi
5:53 PM4 °FHeavy snow. Ice fog.35 mph91%29.85 "Hg0 mi
4:53 PM4 °FIce fog.33 mph91%29.85 "Hg0 mi
3:53 PM5 °FHeavy snow. Ice fog.33 mph87%29.85 "Hg0 mi
2:53 PM5 °FHeavy snow. Ice fog.32 mph91%29.86 "Hg0 mi
1:53 PM5 °FHeavy snow. Ice fog.32 mph91%29.86 "Hg0 mi
12:53 PM6 °FHeavy snow. Ice fog.32 mph91%29.87 "Hg0 mi
Weather by CustomWeather, © 2016

See weather overviewHow to use our weather pages